Home > Weather > Makati > Past weeks

Flag for Philippines Weather for the Past 2 Weeks in Makati, Philippines

Now
75 °F

Passing clouds.


Feels Like: 75 °F
Forecast: 79 / 85 °F
Wind: 3 mph from East

Location: National Airport

Current Time: Feb 10, 2016 at 5:41:10 AM

Latest Report: Feb 10, 2016 at 5:00 AM


Visibility: N/A

Pressure: 29.92 "Hg

Humidity: 89%

Dew point: 72 °F

Location of MakatiLocation

Historic Weather in Makati — Graph

°F

Makati Temperature Yesterday

Maximum temperature yesterday: 84 °F (at 12:00 PM)
Minimum temperature yesterday: 73 °F (at 2:00 AM)
Average temperature yesterday: 79 °F

High & Low Weather Summary for the Past Weeks

 TemperatureHumidityPressure
High91 °F (Feb 2, 1:00 PM)100% (Jan 26, 10:00 AM)30.12 "Hg (Jan 26, 10:00 AM)
Low73 °F (Feb 8, 2:00 AM)41% (Feb 2, 2:00 PM)29.56 "Hg (Feb 2, 5:00 PM)
Average81 °F73%29.94 "Hg
* Reported Jan 26 4:00 AM — Feb 10 4:00 AM, Makati, Weather by CustomWeather, © 2016

Note: Actual official high and low records may vary slightly from our data, if they occured in-between our weather recording intervals... More about our weather records

Advertising

Makati Weather History for the Previous 24 Hours

 ConditionsComfort  
Time TempWeatherWind HumidityBarometerVisibility
4:00 AM
Wed, Feb 10
75 °FPassing clouds.3 mph83%29.92 "HgN/A
3:00 AM77 °FPassing clouds.6 mph83%29.92 "HgN/A
2:00 AM75 °FPassing clouds.No wind89%29.92 "HgN/A
1:00 AM77 °FPassing clouds.3 mph83%29.95 "HgN/A
12:00 AM77 °FPassing clouds.No wind83%29.95 "HgN/A
11:00 PM
Tue, Feb 9
77 °FPassing clouds.3 mph83%29.95 "HgN/A
10:00 PM79 °FPartly cloudy.5 mph74%29.98 "HgN/A
9:00 PM79 °FSprinkles. Partly cloudy.9 mph74%29.98 "Hg6 mi
8:00 PM79 °FPartly cloudy.10 mph74%29.98 "HgN/A
7:00 PM79 °FPartly cloudy.10 mph74%29.95 "HgN/A
6:00 PM81 °FPartly cloudy.10 mph70%29.95 "HgN/A
5:00 PM82 °FPassing clouds.5 mph48%29.92 "HgN/A
4:00 PM84 °FBroken clouds.10 mph58%29.92 "HgN/A
3:00 PM84 °FBroken clouds.9 mph58%29.92 "HgN/A
2:00 PM84 °FBroken clouds.13 mph58%29.92 "HgN/A
1:00 PM84 °FBroken clouds.13 mph58%29.95 "HgN/A
12:00 PM84 °FBroken clouds.9 mph62%29.98 "HgN/A
11:00 AM81 °FBroken clouds.5 mph66%30.01 "HgN/A
10:00 AM81 °FBroken clouds.5 mph62%30.01 "HgN/A
9:00 AM79 °FScattered clouds.5 mph65%30.01 "HgN/A
8:00 AM77 °FBroken clouds.5 mph69%30.01 "HgN/A
7:00 AM75 °FScattered clouds.5 mph74%29.98 "HgN/A
6:00 AM73 °FPassing clouds.5 mph78%29.98 "HgN/A
5:00 AM73 °FPassing clouds.3 mph83%29.95 "HgN/A
Weather by CustomWeather, © 2016

See weather overviewHow to use our weather pages